Weather History for Hazen, ND

Change the Weather History Date:

Friday, May 24, 2013

  Actual Average (KN60) Record (KN60)
Temperature  
Mean Temperature 56 °F -  
Max Temperature 64 °F 67 °F 86 °F (2014)
Min Temperature 48 °F 42 °F 28 °F (2002)
Degree Days  
Heating Degree Days 9    
Growing Degree Days 6 (Base 50)    
Moisture  
Dew Point 45 °F    
Average Humidity 67    
Maximum Humidity 94    
Minimum Humidity 54    
Precipitation  
Precipitation 0.00 in - - ()
Sea Level Pressure  
Sea Level Pressure 30.00 in    
Wind  
Wind Speed 16 mph (SE)    
Max Wind Speed 26 mph    
Max Gust Speed 39 mph    
Visibility 10 miles    
Events      
Averages and records for this station are not official NWS values.
T = Trace of Precipitation, MM = Missing Value Source: NWS Daily Summary

Daily Weather History Graph

Daily Weather History Graph

Search for Another Location

Airport:

Trip Planner

Search our weather history database for the weather conditions in past years. The results will help you decide how hot, cold, wet, or windy it might be!

Date:

Astronomy

May. 24, 2013 Rise Set
Actual Time 5:59 AM CDT 9:27 PM CDT
Civil Twilight 5:22 AM CDT 10:05 PM CDT
Nautical Twilight 4:32 AM CDT 10:55 PM CDT
Astronomical Twilight 3:26 AM CDT 12:01 AM CDT
Moon 9:09 PM CDT (5/24) 5:37 AM CDT (5/24)
Length of Visible Light 16h 42m
Length of Day
15h 27m
Full, 100% of the Moon is Illuminated
May 24
Full
May 24
Full
May 31
Last Quarter
Jun 8
New
Jun 16
First Quarter

Hourly Weather History & Observations

Time (CDT) Temp. Dew Point Humidity Pressure Visibility Wind Dir Wind Speed Gust Speed Precip Events Conditions
12:15 AM 55.4 °F 44.6 °F 67% 30.13 in 10.0 mi East 8.1 mph - N/A   Clear
12:35 AM 55.4 °F 44.6 °F 67% 30.13 in 10.0 mi ESE 10.4 mph 16.1 mph N/A   Clear
12:55 AM 55.4 °F 44.6 °F 67% 30.13 in 10.0 mi ESE 11.5 mph 18.4 mph N/A   Partly Cloudy
1:15 AM 55.4 °F 44.6 °F 67% 30.13 in 10.0 mi ESE 12.7 mph 20.7 mph N/A   Scattered Clouds
1:35 AM 55.4 °F 44.6 °F 67% 30.12 in 10.0 mi SE 13.8 mph 20.7 mph N/A   Mostly Cloudy
1:55 AM 55.4 °F 44.6 °F 67% 30.11 in 10.0 mi SE 16.1 mph 24.2 mph N/A   Partly Cloudy
2:15 AM 53.6 °F 44.6 °F 72% 30.10 in 10.0 mi SE 19.6 mph 25.3 mph N/A   Clear
2:35 AM 53.6 °F 42.8 °F 67% 30.09 in 10.0 mi SE 17.3 mph 27.6 mph N/A   Partly Cloudy
2:55 AM 53.6 °F 42.8 °F 67% 30.08 in 10.0 mi SE 16.1 mph 31.1 mph N/A   Clear
3:15 AM 53.6 °F 42.8 °F 67% 30.07 in 10.0 mi SE 18.4 mph 25.3 mph N/A   Partly Cloudy
3:35 AM 51.8 °F 41.0 °F 67% 30.07 in 10.0 mi SE 17.3 mph 24.2 mph N/A   Partly Cloudy
3:55 AM 51.8 °F 41.0 °F 67% 30.07 in 10.0 mi SE 19.6 mph 28.8 mph N/A   Scattered Clouds
4:15 AM 50.0 °F 41.0 °F 71% 30.06 in 10.0 mi SE 20.7 mph 27.6 mph N/A   Scattered Clouds
4:35 AM 50.0 °F 41.0 °F 71% 30.06 in 10.0 mi SE 19.6 mph 28.8 mph N/A   Scattered Clouds
4:55 AM 50.0 °F 39.2 °F 66% 30.05 in 10.0 mi SE 18.4 mph 26.5 mph N/A   Scattered Clouds
5:15 AM 50.0 °F 39.2 °F 66% 30.05 in 10.0 mi SE 18.4 mph 26.5 mph N/A   Scattered Clouds
5:35 AM 48.2 °F 37.4 °F 66% 30.04 in 10.0 mi SE 17.3 mph 23.0 mph N/A   Scattered Clouds
5:55 AM 50.0 °F 35.6 °F 58% 30.03 in 10.0 mi SE 21.9 mph 33.4 mph N/A   Partly Cloudy
6:15 AM 50.0 °F 35.6 °F 58% 30.02 in 10.0 mi SE 19.6 mph 29.9 mph N/A   Clear
6:35 AM 50.0 °F 35.6 °F 58% 30.02 in 10.0 mi SE 20.7 mph 27.6 mph N/A   Clear
6:55 AM 50.0 °F 35.6 °F 58% 30.02 in 10.0 mi SE 20.7 mph 31.1 mph N/A   Scattered Clouds
7:15 AM 51.8 °F 35.6 °F 54% 30.02 in 10.0 mi SE 23.0 mph 36.8 mph N/A   Mostly Cloudy
7:35 AM 51.8 °F 35.6 °F 54% 30.02 in 10.0 mi SE 23.0 mph 39.1 mph N/A   Overcast
7:55 AM 51.8 °F 35.6 °F 54% 30.02 in 10.0 mi SE 25.3 mph 35.7 mph N/A   Overcast
8:15 AM 53.6 °F 37.4 °F 54% 30.01 in 10.0 mi SE 24.2 mph 32.2 mph N/A   Overcast
8:35 AM 53.6 °F 37.4 °F 54% 30.01 in 10.0 mi SE 26.5 mph 34.5 mph N/A   Overcast
8:55 AM 53.6 °F 37.4 °F 54% 30.00 in 10.0 mi SE 25.3 mph 36.8 mph N/A   Overcast
9:15 AM 53.6 °F 39.2 °F 58% 29.99 in 10.0 mi SE 25.3 mph 33.4 mph N/A   Overcast
9:35 AM 53.6 °F 39.2 °F 58% 29.99 in 10.0 mi SE 20.7 mph 32.2 mph N/A   Overcast
9:55 AM 53.6 °F 39.2 °F 58% 29.99 in 10.0 mi SE 21.9 mph 29.9 mph N/A   Overcast
10:15 AM 53.6 °F 39.2 °F 58% 29.98 in 10.0 mi SE 19.6 mph 31.1 mph N/A   Overcast
10:35 AM 53.6 °F 41.0 °F 62% 29.97 in 10.0 mi SE 21.9 mph 29.9 mph N/A   Overcast
10:55 AM 53.6 °F 41.0 °F 62% 29.97 in 10.0 mi SE 24.2 mph 31.1 mph N/A   Overcast
11:15 AM 53.6 °F 41.0 °F 62% 29.97 in 10.0 mi SE 21.9 mph 31.1 mph N/A   Overcast
11:35 AM 53.6 °F 42.8 °F 67% 29.96 in 10.0 mi SE 24.2 mph 31.1 mph N/A   Overcast
11:55 AM 53.6 °F 44.6 °F 72% 29.96 in 10.0 mi SE 23.0 mph 32.2 mph N/A   Overcast
12:15 PM 53.6 °F 44.6 °F 72% 29.96 in 10.0 mi SSE 24.2 mph 33.4 mph N/A   Overcast
12:35 PM 53.6 °F 44.6 °F 72% 29.96 in 10.0 mi SE 23.0 mph 34.5 mph N/A   Overcast
12:55 PM 55.4 °F 44.6 °F 67% 29.95 in 10.0 mi SE 26.5 mph 35.7 mph N/A   Overcast
1:15 PM 55.4 °F 46.4 °F 72% 29.95 in 10.0 mi SSE 23.0 mph 31.1 mph N/A   Overcast
1:35 PM 57.2 °F 46.4 °F 67% 29.94 in 10.0 mi SSE 23.0 mph 33.4 mph N/A   Overcast
1:55 PM 57.2 °F 46.4 °F 67% 29.94 in 10.0 mi SSE 24.2 mph 36.8 mph N/A   Overcast
2:15 PM 59.0 °F 46.4 °F 63% 29.95 in 10.0 mi SSE 23.0 mph 31.1 mph N/A   Overcast
2:35 PM 60.8 °F 48.2 °F 63% 29.95 in 10.0 mi SSE 21.9 mph 31.1 mph N/A   Overcast
2:55 PM 60.8 °F 48.2 °F 63% 29.95 in 10.0 mi SSE 11.5 mph 26.5 mph N/A   Overcast
3:15 PM 60.8 °F 48.2 °F 63% 29.96 in 10.0 mi SE 16.1 mph - N/A   Overcast
3:35 PM 60.8 °F 48.2 °F 63% 29.95 in 10.0 mi SSE 16.1 mph 20.7 mph N/A   Overcast
3:55 PM 60.8 °F 48.2 °F 63% 29.95 in 10.0 mi SSE 15.0 mph 21.9 mph N/A   Overcast
4:15 PM 62.6 °F 50.0 °F 63% 29.94 in 10.0 mi SE 12.7 mph - N/A   Overcast
4:35 PM 62.6 °F 50.0 °F 63% 29.94 in 10.0 mi SE 11.5 mph - N/A   Overcast
4:55 PM 62.6 °F 50.0 °F 63% 29.94 in 10.0 mi ESE 9.2 mph 20.7 mph N/A   Overcast
5:15 PM 62.6 °F 50.0 °F 63% 29.94 in 10.0 mi ESE 12.7 mph 17.3 mph N/A   Overcast
5:35 PM 62.6 °F 50.0 °F 63% 29.95 in 10.0 mi ESE 9.2 mph - N/A   Overcast
5:55 PM 62.6 °F 51.8 °F 68% 29.95 in 10.0 mi SE 11.5 mph 16.1 mph N/A   Overcast
6:15 PM 64.4 °F 51.8 °F 64% 29.94 in 10.0 mi SE 13.8 mph 20.7 mph N/A   Mostly Cloudy
6:35 PM 62.6 °F 51.8 °F 68% 29.94 in 10.0 mi ESE 12.7 mph 18.4 mph N/A   Mostly Cloudy
6:55 PM 64.4 °F 51.8 °F 64% 29.94 in 10.0 mi SE 12.7 mph - N/A   Overcast
7:15 PM 64.4 °F 51.8 °F 64% 29.94 in 10.0 mi SE 13.8 mph 17.3 mph N/A   Overcast
7:35 PM 64.4 °F 53.6 °F 68% 29.94 in 10.0 mi SE 13.8 mph 18.4 mph N/A   Mostly Cloudy
7:55 PM 62.6 °F 51.8 °F 68% 29.95 in 10.0 mi SE 17.3 mph - N/A   Partly Cloudy
8:15 PM 62.6 °F 51.8 °F 68% 29.95 in 10.0 mi SSE 15.0 mph 20.7 mph N/A   Clear
8:35 PM 60.8 °F 51.8 °F 72% 29.96 in 10.0 mi SE 11.5 mph 19.6 mph N/A   Clear
8:55 PM 59.0 °F 50.0 °F 72% 29.96 in 10.0 mi SE 11.5 mph 18.4 mph N/A   Clear
9:15 PM 59.0 °F 50.0 °F 72% 29.97 in 10.0 mi SSE 6.9 mph - N/A   Clear
9:35 PM 57.2 °F 50.0 °F 77% 29.99 in 10.0 mi East 3.5 mph - N/A   Scattered Clouds
9:55 PM 57.2 °F 50.0 °F 77% 29.99 in 10.0 mi ESE 6.9 mph - N/A   Partly Cloudy
10:15 PM 55.4 °F 50.0 °F 82% 30.01 in 10.0 mi Calm Calm - N/A   Partly Cloudy
10:35 PM 53.6 °F 48.2 °F 82% 30.02 in 10.0 mi NE 3.5 mph - N/A   Clear
10:55 PM 53.6 °F 48.2 °F 82% 30.02 in 10.0 mi East 3.5 mph - N/A   Clear
11:15 PM 50.0 °F 48.2 °F 94% 30.02 in 10.0 mi ESE 3.5 mph - N/A   Partly Cloudy
11:35 PM 50.0 °F 48.2 °F 94% 30.03 in 10.0 mi ENE 5.8 mph - N/A   Partly Cloudy
11:55 PM 50.0 °F 48.2 °F 94% 30.03 in 10.0 mi ENE 5.8 mph - N/A   Clear